KINEIS-1B

Last updated on Wed Oct 22 2025 00:02:42 GMT+0000 (Coordinated Universal Time)

1 60079U 24114A 25294.65121565 .00001891 00000+0 25708-3 0 9990 2 60079 98.0036 314.8334 0003478 129.9974 230.1544 14.79967118 72112
UTC large
Height (km)
Speed (km/s)
/
Latitude / Longitude
Inclination (degrees)
Orbital Period (minutes)
Azimuth
Elevation
Range (km)
Doppler Factor

Next 0 passes for location: London (51.5072 / 0.1276)

Sorry there are no passes over London.